Date,Time,Wetness (Wet Dry or Ice),Wind Speed (m/s),Temperature (C),Humidity (%),Pressure (mb),Radiation (W/m^2)
2020-05-19,22:10:00,DRY,2.30,12.73,2.3,775.67,1.5
2020-05-19,22:15:00,DRY,2.90,13.25,2.0,776.00,0.6
2020-05-19,22:20:00,DRY,3.30,13.27,2.0,776.00,1.2
2020-05-19,22:25:00,DRY,2.75,13.30,2.0,776.00,1.4
2020-05-19,22:30:00,DRY,2.43,13.30,2.0,776.00,1.4
2020-05-19,22:35:00,DRY,2.20,13.05,2.5,776.00,1.0
2020-05-19,22:40:00,DRY,2.13,13.07,2.7,776.00,1.1
2020-05-19,22:45:00,DRY,1.80,13.10,2.0,776.00,2.2
2020-05-19,22:50:00,DRY,3.13,13.37,2.3,776.00,0.8
2020-05-19,22:55:00,DRY,2.75,13.50,2.0,776.00,0.9
2020-05-19,23:00:00,DRY,1.67,13.57,2.0,776.00,0.4
2020-05-19,23:05:00,DRY,1.15,13.30,2.0,776.00,0.5
2020-05-19,23:10:00,DRY,1.73,13.07,2.0,776.00,1.4
2020-05-19,23:15:00,DRY,1.65,13.30,2.0,776.00,1.6
2020-05-19,23:20:00,DRY,1.53,13.43,2.0,776.00,1.1
2020-05-19,23:25:00,DRY,2.00,13.45,2.0,776.00,1.0
2020-05-19,23:30:00,DRY,1.83,13.60,1.7,776.00,0.6
2020-05-19,23:35:00,DRY,0.80,13.75,2.0,776.00,1.6
2020-05-19,23:40:00,DRY,1.10,13.67,2.0,776.00,0.8
2020-05-19,23:45:00,DRY,1.15,13.60,2.0,776.00,1.5
2020-05-19,23:50:00,DRY,1.77,13.47,2.0,776.00,1.2
2020-05-19,23:55:00,DRY,1.95,13.60,2.0,776.00,1.2
2020-05-20,00:00:00,DRY,1.67,13.57,2.0,776.00,1.4
2020-05-20,00:05:00,DRY,2.40,13.50,2.0,776.00,1.4
2020-05-20,00:10:00,DRY,1.97,13.60,2.0,776.00,1.6
2020-05-20,00:15:00,DRY,1.70,13.45,2.0,776.00,0.6
2020-05-20,00:20:00,DRY,1.60,13.50,2.0,776.00,1.8
2020-05-20,00:25:00,DRY,1.90,13.15,3.0,776.00,1.7
2020-05-20,00:30:00,DRY,1.67,13.10,2.7,776.00,1.5
2020-05-20,00:35:00,DRY,1.75,13.30,2.5,776.00,1.4
2020-05-20,00:40:00,DRY,1.63,13.10,2.7,776.00,0.8
2020-05-20,00:45:00,DRY,1.50,13.05,3.0,776.00,0.7
2020-05-20,00:50:00,DRY,1.80,13.20,2.3,776.00,1.2
2020-05-20,00:55:00,DRY,2.55,13.15,2.5,775.00,1.1
2020-05-20,01:00:00,DRY,2.07,13.20,2.3,775.67,1.0
2020-05-20,01:05:00,DRY,2.55,13.05,3.0,775.00,1.0
2020-05-20,01:10:00,DRY,2.07,13.03,3.0,775.00,0.9
2020-05-20,01:15:00,DRY,1.95,13.35,3.0,775.00,1.1
2020-05-20,01:20:00,DRY,1.70,13.33,3.0,775.33,1.3
2020-05-20,01:25:00,DRY,1.30,13.10,3.0,775.00,0.8
2020-05-20,01:30:00,DRY,1.30,13.10,3.0,775.00,1.3
2020-05-20,01:35:00,DRY,1.95,13.20,3.0,775.00,0.7
2020-05-20,01:40:00,DRY,2.47,13.20,3.0,775.00,0.9
2020-05-20,01:45:00,DRY,1.90,13.15,3.0,775.00,1.1
2020-05-20,01:50:00,DRY,1.97,13.10,3.3,775.00,1.8
2020-05-20,01:55:00,DRY,1.65,13.30,3.0,775.00,1.6
2020-05-20,02:00:00,DRY,1.90,13.50,3.0,775.00,1.4
2020-05-20,02:05:00,DRY,2.40,13.45,3.0,775.00,0.8
2020-05-20,02:10:00,DRY,2.43,13.37,3.0,775.00,1.1
2020-05-20,02:15:00,DRY,2.20,13.35,3.0,775.00,1.2
2020-05-20,02:20:00,DRY,1.97,13.00,3.7,775.00,1.2
2020-05-20,02:25:00,DRY,2.25,13.35,3.0,775.00,0.7
2020-05-20,02:30:00,DRY,2.07,13.27,3.0,775.00,0.5
2020-05-20,02:35:00,DRY,1.85,13.30,3.0,775.00,0.8
2020-05-20,02:40:00,DRY,1.50,12.93,3.7,774.33,1.1
2020-05-20,02:45:00,DRY,0.85,12.95,4.0,775.00,1.5
2020-05-20,02:50:00,DRY,1.00,13.40,3.7,774.67,0.6
2020-05-20,02:55:00,DRY,1.60,13.40,4.0,774.00,1.0
2020-05-20,03:00:00,DRY,1.10,13.23,4.0,774.33,1.5
2020-05-20,03:05:00,DRY,0.95,13.45,3.0,775.00,1.1
2020-05-20,03:10:00,DRY,1.43,13.43,3.3,774.67,1.5
2020-05-20,03:15:00,DRY,1.95,13.55,3.0,774.00,1.8
2020-05-20,03:20:00,DRY,2.43,14.03,3.0,774.00,1.0
2020-05-20,03:25:00,DRY,2.15,13.70,3.5,774.00,1.4
2020-05-20,03:30:00,DRY,1.53,13.77,3.7,774.00,1.1
2020-05-20,03:35:00,DRY,1.25,14.10,4.0,774.00,2.2
2020-05-20,03:40:00,DRY,0.80,14.57,4.0,774.00,1.1
2020-05-20,03:45:00,DRY,1.05,14.55,4.0,774.00,1.3
2020-05-20,03:50:00,DRY,1.47,14.60,3.7,774.00,1.5
2020-05-20,03:55:00,DRY,1.70,14.75,3.5,774.00,1.4
2020-05-20,04:00:00,DRY,1.87,14.67,3.0,774.00,1.5
2020-05-20,04:05:00,DRY,1.65,14.55,2.0,774.00,1.5
2020-05-20,04:10:00,DRY,1.60,14.50,3.0,774.00,1.2
2020-05-20,04:15:00,DRY,1.25,14.55,3.0,774.00,1.2
2020-05-20,04:20:00,DRY,0.67,14.17,3.3,774.00,1.5
2020-05-20,04:25:00,DRY,0.45,13.80,3.5,774.00,1.3
2020-05-20,04:30:00,DRY,0.90,14.23,4.0,774.00,1.1
2020-05-20,04:35:00,DRY,1.15,14.25,3.5,774.00,1.4
2020-05-20,04:40:00,DRY,0.70,14.13,3.3,774.00,0.9
2020-05-20,04:45:00,DRY,0.55,14.35,4.0,774.00,1.2
2020-05-20,04:50:00,DRY,0.47,14.43,4.0,774.00,1.2
2020-05-20,04:55:00,DRY,0.40,14.50,4.0,774.00,1.1
2020-05-20,05:00:00,DRY,0.17,14.27,4.3,774.00,1.4
2020-05-20,05:05:00,DRY,0.15,13.85,5.0,774.00,2.9
2020-05-20,05:10:00,DRY,0.20,13.70,5.0,774.00,1.3
2020-05-20,05:15:00,DRY,0.30,13.75,5.0,774.00,1.4
2020-05-20,05:20:00,DRY,0.67,13.90,5.0,774.33,0.9
2020-05-20,05:25:00,DRY,0.80,13.95,4.0,774.00,1.4
2020-05-20,05:30:00,DRY,0.67,13.57,5.0,774.67,2.4
2020-05-20,05:35:00,DRY,0.60,13.30,5.0,775.00,1.2
2020-05-20,05:40:00,DRY,0.60,13.30,3.3,775.00,0.9
2020-05-20,05:45:00,DRY,1.00,13.30,3.0,775.00,0.8
2020-05-20,05:50:00,DRY,1.40,13.40,3.0,775.00,0.8
2020-05-20,05:55:00,DRY,1.40,13.30,3.0,775.00,1.9
2020-05-20,06:00:00,DRY,0.87,13.23,3.3,775.00,1.6
2020-05-20,06:05:00,DRY,0.95,13.05,4.0,775.00,3.0
2020-05-20,06:10:00,DRY,0.60,13.27,4.0,775.00,4.3
2020-05-20,06:15:00,DRY,0.70,13.45,4.5,775.00,6.4
2020-05-20,06:20:00,DRY,0.57,13.50,4.0,775.00,11.9
2020-05-20,06:25:00,DRY,0.70,13.85,4.0,775.00,24.0
2020-05-20,06:30:00,DRY,0.67,14.07,4.0,775.00,40.5
2020-05-20,06:35:00,DRY,0.55,14.20,4.5,775.00,59.1
2020-05-20,06:40:00,DRY,0.27,14.17,5.0,775.00,83.0
2020-05-20,06:45:00,DRY,0.60,14.40,5.5,775.00,106.2
2020-05-20,06:50:00,DRY,0.87,14.30,5.3,775.00,127.4
2020-05-20,06:55:00,DRY,1.10,14.40,4.0,775.00,146.4
2020-05-20,07:00:00,DRY,1.10,14.40,4.0,775.00,166.3
2020-05-20,07:05:00,DRY,0.95,14.55,4.0,775.00,187.2
2020-05-20,07:10:00,DRY,0.60,14.50,4.0,775.00,209.1
2020-05-20,07:15:00,DRY,0.60,14.85,4.0,775.00,231.7
2020-05-20,07:20:00,DRY,0.87,14.80,4.3,775.00,254.6
2020-05-20,07:25:00,DRY,0.70,15.05,5.0,775.00,275.6
2020-05-20,07:30:00,DRY,0.80,15.23,6.0,775.00,299.7
2020-05-20,07:35:00,DRY,0.85,15.65,6.5,775.00,322.9
2020-05-20,07:40:00,DRY,0.23,15.87,6.3,775.00,344.4
2020-05-20,07:45:00,DRY,0.75,16.10,5.5,775.00,368.1
2020-05-20,07:50:00,DRY,1.10,15.80,5.3,775.00,391.2
2020-05-20,07:55:00,DRY,0.70,15.60,6.0,775.00,413.1
2020-05-20,08:00:00,DRY,0.93,15.73,6.0,775.00,436.0
2020-05-20,08:05:00,DRY,0.35,16.00,4.5,775.00,458.5
2020-05-20,08:10:00,DRY,0.57,16.17,6.3,775.00,480.6
2020-05-20,08:15:00,DRY,1.10,16.65,6.0,775.00,503.1
2020-05-20,08:20:00,DRY,0.70,16.33,7.0,775.00,524.8
2020-05-20,08:25:00,DRY,0.30,15.95,7.0,775.00,546.7
2020-05-20,08:30:00,DRY,1.10,15.67,6.7,775.00,569.3
2020-05-20,08:35:00,DRY,1.80,15.50,7.0,775.00,589.8
2020-05-20,08:40:00,DRY,0.63,15.70,6.3,775.00,611.5
2020-05-20,08:45:00,DRY,0.90,16.05,6.0,775.00,630.9
2020-05-20,08:50:00,DRY,1.40,16.17,7.7,775.00,653.5
2020-05-20,08:55:00,DRY,1.15,15.80,7.5,775.00,672.7
2020-05-20,09:00:00,DRY,1.43,16.03,8.0,775.67,692.6
2020-05-20,09:05:00,DRY,0.70,15.95,8.0,776.00,712.5
2020-05-20,09:10:00,DRY,0.87,16.00,6.3,776.00,731.1
2020-05-20,09:15:00,DRY,1.45,16.15,8.0,776.00,751.5
2020-05-20,09:20:00,DRY,1.13,16.23,6.7,775.67,771.4
2020-05-20,09:25:00,DRY,1.15,15.90,5.5,776.00,790.5
2020-05-20,09:30:00,DRY,0.90,16.20,6.0,776.00,807.6
2020-05-20,09:35:00,DRY,1.20,16.75,8.5,776.00,823.3
2020-05-20,09:40:00,DRY,1.73,17.10,10.7,776.00,843.6
2020-05-20,09:45:00,DRY,1.60,17.40,10.5,776.00,861.5
2020-05-20,09:50:00,DRY,1.37,16.80,11.3,776.00,877.9
2020-05-20,09:55:00,DRY,1.80,17.15,14.0,776.00,893.1
2020-05-20,10:00:00,DRY,1.10,17.17,11.3,776.00,909.0
2020-05-20,10:05:00,DRY,1.00,16.60,12.0,776.00,925.7
2020-05-20,10:10:00,DRY,1.60,17.43,12.0,776.00,939.9
2020-05-20,10:15:00,DRY,2.35,17.35,14.0,776.00,956.0
2020-05-20,10:20:00,DRY,1.47,17.00,20.7,776.00,970.0
2020-05-20,10:25:00,DRY,2.05,17.20,23.0,776.00,981.8
2020-05-20,10:30:00,DRY,1.97,16.93,22.0,776.00,996.2
2020-05-20,10:35:00,DRY,1.70,16.45,23.0,776.00,1010.0
2020-05-20,10:40:00,DRY,1.47,16.97,24.0,776.00,1022.2
2020-05-20,10:45:00,DRY,1.40,17.30,23.0,776.00,1033.2
2020-05-20,10:50:00,DRY,2.23,16.97,26.3,776.00,1046.8
2020-05-20,10:55:00,DRY,1.80,16.40,23.0,776.00,1058.3
2020-05-20,11:00:00,DRY,2.33,16.27,28.3,776.00,1070.7
2020-05-20,11:05:00,DRY,3.35,16.00,35.0,776.00,1082.5
2020-05-20,11:10:00,DRY,2.00,15.17,38.3,776.00,1094.5
2020-05-20,11:15:00,DRY,1.55,16.30,36.0,776.00,1101.3
2020-05-20,11:20:00,DRY,1.53,16.10,38.0,776.00,1112.8
2020-05-20,11:25:00,DRY,1.10,16.15,25.5,776.00,1117.6
2020-05-20,11:30:00,DRY,1.87,15.97,35.0,776.00,1128.7
2020-05-20,11:35:00,DRY,2.65,16.50,34.5,776.00,1135.3
2020-05-20,11:40:00,DRY,2.20,16.37,19.0,776.00,1140.1
2020-05-20,11:45:00,DRY,2.40,16.35,20.0,776.00,1152.5
2020-05-20,11:50:00,DRY,2.47,16.30,13.7,776.00,1159.0
2020-05-20,11:55:00,DRY,2.55,16.95,13.0,776.00,1164.0
2020-05-20,12:00:00,DRY,1.97,16.33,22.3,776.00,1169.2
2020-05-20,12:05:00,DRY,2.20,16.20,17.5,776.00,1177.2
2020-05-20,12:10:00,DRY,2.83,16.47,18.7,776.00,1180.6
2020-05-20,12:15:00,DRY,2.35,16.35,13.5,776.00,1184.2
2020-05-20,12:20:00,DRY,2.57,16.30,21.0,776.00,1190.1
2020-05-20,12:25:00,DRY,1.20,16.70,15.5,776.00,1193.1
2020-05-20,12:30:00,DRY,1.90,16.97,19.0,776.00,1197.2
2020-05-20,12:35:00,DRY,2.80,16.65,28.5,776.00,1198.0
2020-05-20,12:40:00,DRY,2.33,16.77,14.0,776.00,1199.6
2020-05-20,12:45:00,DRY,3.30,16.25,25.0,776.00,1202.0
2020-05-20,12:50:00,DRY,1.80,16.37,18.7,776.33,1203.0
2020-05-20,12:55:00,DRY,3.00,16.55,24.0,776.00,1205.4
2020-05-20,13:00:00,DRY,2.50,16.47,15.3,776.00,1204.9
2020-05-20,13:05:00,DRY,2.10,16.20,20.5,776.00,1208.1
2020-05-20,13:10:00,DRY,3.07,16.43,24.7,776.00,1206.9
2020-05-20,13:15:00,DRY,3.00,16.40,25.0,776.00,1205.9
2020-05-20,13:20:00,DRY,2.03,16.10,26.0,776.00,1205.2
2020-05-20,13:25:00,DRY,3.35,16.70,31.5,776.00,1203.8
2020-05-20,13:30:00,DRY,3.40,16.50,38.0,776.00,1202.8
2020-05-20,13:35:00,DRY,3.10,16.10,47.0,776.00,1201.5
2020-05-20,13:40:00,DRY,2.07,15.63,43.0,776.00,1200.2
2020-05-20,13:45:00,DRY,3.35,15.75,44.5,776.00,1197.3
2020-05-20,13:50:00,DRY,2.37,15.97,50.3,776.00,1193.4
2020-05-20,13:55:00,DRY,3.05,16.10,50.5,776.00,1187.8
2020-05-20,14:00:00,DRY,1.37,15.37,50.7,776.00,1186.4
2020-05-20,14:05:00,DRY,3.70,15.90,48.5,776.00,1179.8
2020-05-20,14:10:00,DRY,3.50,16.00,43.7,776.00,1174.7
2020-05-20,14:15:00,DRY,2.55,15.65,50.0,776.00,1167.2
2020-05-20,14:20:00,DRY,2.53,15.83,42.7,776.00,1163.0
2020-05-20,14:25:00,DRY,3.05,16.00,46.0,776.00,1152.2
2020-05-20,14:30:00,DRY,2.93,16.43,46.3,776.00,1146.4
2020-05-20,14:35:00,DRY,2.40,15.80,46.5,776.00,1139.0
2020-05-20,14:40:00,DRY,2.67,16.00,46.7,776.00,1131.8
2020-05-20,14:45:00,DRY,2.90,15.70,43.5,776.00,1122.4
2020-05-20,14:50:00,DRY,2.20,15.87,46.7,776.00,1115.0
2020-05-20,14:55:00,DRY,2.10,15.55,55.5,776.00,1103.1
2020-05-20,15:00:00,DRY,1.70,15.53,52.0,776.00,1095.6
2020-05-20,15:05:00,DRY,1.45,15.90,47.5,776.00,1086.1
2020-05-20,15:10:00,DRY,2.20,15.60,53.3,776.00,1075.0
2020-05-20,15:15:00,DRY,1.70,15.35,48.5,776.00,1060.7
2020-05-20,15:20:00,DRY,2.30,15.50,53.3,776.00,1049.5
2020-05-20,15:25:00,DRY,3.85,15.55,52.5,776.00,1035.4
2020-05-20,15:30:00,DRY,2.53,15.73,49.7,776.00,1021.9
2020-05-20,15:35:00,DRY,2.20,15.30,56.0,776.00,1009.1
2020-05-20,15:40:00,DRY,3.00,15.57,58.0,776.00,994.4
2020-05-20,15:45:00,DRY,2.65,15.25,58.5,776.00,981.9
2020-05-20,15:50:00,DRY,0.90,15.33,51.0,776.00,968.8
2020-05-20,15:55:00,DRY,2.15,15.60,53.0,776.00,953.2
2020-05-20,16:00:00,DRY,2.03,15.63,55.3,776.00,939.2
2020-05-20,16:05:00,DRY,1.80,15.45,53.5,776.00,924.6
2020-05-20,16:10:00,DRY,2.03,15.17,60.0,776.00,906.5
2020-05-20,16:15:00,DRY,1.95,15.65,59.0,776.00,888.0
2020-05-20,16:20:00,DRY,1.97,15.90,41.7,776.00,873.8
2020-05-20,16:25:00,DRY,2.30,16.40,27.5,776.00,859.0
2020-05-20,16:30:00,DRY,2.07,16.33,40.7,776.00,841.4
2020-05-20,16:35:00,DRY,1.85,15.95,36.0,776.00,821.1
2020-05-20,16:40:00,DRY,2.27,16.27,41.0,776.00,803.0
2020-05-20,16:45:00,DRY,2.00,16.35,37.0,776.00,785.4
2020-05-20,16:50:00,DRY,2.43,16.47,40.0,776.00,766.0
2020-05-20,16:55:00,DRY,1.35,15.65,48.5,776.00,746.2
2020-05-20,17:00:00,DRY,1.67,15.87,32.3,776.00,727.9
2020-05-20,17:05:00,DRY,1.35,16.25,31.0,776.00,708.4
2020-05-20,17:10:00,DRY,2.73,16.47,34.3,776.00,689.8
2020-05-20,17:15:00,DRY,1.65,16.15,40.0,776.00,668.2
2020-05-20,17:20:00,DRY,1.63,15.90,33.7,776.00,650.4
2020-05-20,17:25:00,DRY,2.60,16.15,27.0,776.00,628.0
2020-05-20,17:30:00,DRY,2.50,16.27,20.0,776.00,606.6
2020-05-20,17:35:00,DRY,2.25,16.10,21.0,776.00,587.2
2020-05-20,17:40:00,DRY,2.40,15.83,41.3,776.00,563.5
2020-05-20,17:45:00,DRY,1.50,14.90,50.5,776.00,542.0
2020-05-20,17:50:00,DRY,1.57,15.23,49.3,776.00,519.9
2020-05-20,17:55:00,DRY,1.70,15.10,42.5,776.00,499.0
2020-05-20,18:00:00,DRY,1.73,14.90,36.7,776.00,475.5
2020-05-20,18:05:00,DRY,2.25,15.15,41.0,776.00,454.4
2020-05-20,18:10:00,DRY,2.07,15.53,24.0,776.00,432.5
2020-05-20,18:15:00,DRY,2.05,15.80,22.5,776.00,410.3
2020-05-20,18:20:00,DRY,1.90,16.03,32.3,776.00,387.5
2020-05-20,18:25:00,DRY,2.00,15.75,30.0,776.00,363.9
2020-05-20,18:30:00,DRY,2.03,15.70,22.3,776.00,343.3
2020-05-20,18:35:00,DRY,2.55,15.45,16.5,776.00,320.9
2020-05-20,18:40:00,DRY,2.70,15.40,26.7,776.00,297.9
2020-05-20,18:45:00,DRY,1.90,15.70,15.5,776.00,275.9
2020-05-20,18:50:00,DRY,2.30,15.60,20.7,776.00,254.6
2020-05-20,18:55:00,DRY,1.85,15.65,21.0,776.00,231.9
2020-05-20,19:00:00,DRY,1.43,15.67,18.7,776.00,211.8
2020-05-20,19:05:00,DRY,2.35,15.60,18.0,776.00,190.6
2020-05-20,19:10:00,DRY,2.90,15.35,13.0,776.00,167.2
2020-05-20,19:15:00,DRY,1.80,15.15,13.0,776.00,151.8
2020-05-20,19:20:00,DRY,1.87,15.00,14.3,776.33,129.9
2020-05-20,19:25:00,DRY,1.55,14.95,16.5,776.00,104.7
2020-05-20,19:30:00,DRY,2.07,14.73,12.0,777.00,79.8
2020-05-20,19:35:00,DRY,2.15,14.55,11.5,777.00,58.5
2020-05-20,19:40:00,DRY,2.27,14.50,5.3,777.00,41.6
2020-05-20,19:45:00,DRY,2.10,14.40,4.5,777.00,28.4
2020-05-20,19:50:00,DRY,2.17,14.43,3.0,777.00,18.5
2020-05-20,19:55:00,DRY,2.60,14.25,2.5,777.00,12.8
2020-05-20,20:00:00,DRY,2.27,14.13,2.0,777.00,8.4
2020-05-20,20:05:00,DRY,2.20,14.00,2.5,777.00,5.3
2020-05-20,20:10:00,DRY,2.10,13.87,2.3,777.00,3.3
2020-05-20,20:15:00,DRY,1.85,13.65,2.0,777.00,2.3
2020-05-20,20:20:00,DRY,2.00,13.63,2.0,777.00,1.9
2020-05-20,20:25:00,DRY,1.70,13.70,1.0,777.00,0.0
2020-05-20,20:30:00,DRY,1.53,13.70,2.0,777.00,1.4
2020-05-20,20:35:00,DRY,1.75,13.80,1.5,777.00,1.7
2020-05-20,20:40:00,DRY,2.40,13.90,1.3,777.00,1.1
2020-05-20,20:45:00,DRY,2.30,13.85,1.0,777.00,1.7
2020-05-20,20:50:00,DRY,1.80,13.83,1.3,777.33,0.7
2020-05-20,20:55:00,DRY,1.65,13.75,1.5,777.00,2.3
2020-05-20,21:00:00,DRY,1.93,13.47,2.7,777.00,1.2
2020-05-20,21:05:00,DRY,2.00,13.50,1.5,777.00,1.4
2020-05-20,21:10:00,DRY,2.23,13.60,1.3,777.00,0.5
2020-05-20,21:15:00,DRY,2.20,13.65,2.0,778.00,0.7
2020-05-20,21:20:00,DRY,2.23,13.67,1.0,778.00,1.4
2020-05-20,21:25:00,DRY,2.25,13.70,1.0,778.00,1.3
2020-05-20,21:30:00,DRY,2.33,13.77,1.0,778.00,1.5
2020-05-20,21:35:00,DRY,1.95,13.90,1.0,778.00,1.1
2020-05-20,21:40:00,DRY,2.00,13.90,1.0,778.00,1.4
2020-05-20,21:45:00,DRY,1.90,13.90,1.0,778.00,0.8
2020-05-20,21:50:00,DRY,1.77,13.97,1.0,778.00,1.1
2020-05-20,21:55:00,DRY,1.80,14.05,1.0,778.00,1.5
2020-05-20,22:00:00,DRY,1.33,14.00,1.0,778.00,1.8
2020-05-20,22:05:00,DRY,1.70,13.95,1.0,778.00,2.0
2020-05-20,22:10:00,DRY,1.87,14.13,1.0,778.00,1.2
2020-05-20,22:15:00,DRY,2.30,14.15,1.5,778.00,1.0
2020-05-20,22:20:00,DRY,1.93,14.20,2.0,778.00,0.5
2020-05-20,22:25:00,DRY,1.85,14.15,2.5,778.00,1.1
2020-05-20,22:30:00,DRY,1.60,13.97,2.3,778.00,1.1
2020-05-20,22:35:00,DRY,2.15,14.15,2.5,778.00,1.4
2020-05-20,22:40:00,DRY,1.97,14.10,3.0,778.00,1.0
2020-05-20,22:45:00,DRY,2.10,14.25,2.5,778.00,1.5
2020-05-20,22:50:00,DRY,2.03,14.17,2.3,778.00,1.8
2020-05-20,22:55:00,DRY,1.90,14.25,2.5,778.00,1.4
2020-05-20,23:00:00,DRY,1.77,14.20,3.0,778.00,2.1
2020-05-20,23:05:00,DRY,1.95,14.20,2.5,778.00,1.0
2020-05-20,23:10:00,DRY,1.77,14.20,2.7,778.00,1.1
2020-05-20,23:15:00,DRY,1.70,14.40,2.5,778.00,1.2
2020-05-20,23:20:00,DRY,1.57,14.33,2.7,778.00,0.8
2020-05-20,23:25:00,DRY,1.95,14.30,3.0,778.00,0.7
2020-05-20,23:30:00,DRY,1.80,14.23,3.0,778.00,0.8
2020-05-20,23:35:00,DRY,1.80,14.10,3.0,778.00,1.5
2020-05-20,23:40:00,DRY,1.67,13.97,3.0,778.00,2.2
2020-05-20,23:45:00,DRY,1.90,13.75,3.0,778.00,0.4
2020-05-20,23:50:00,DRY,1.67,13.67,3.0,778.00,1.2
2020-05-20,23:55:00,DRY,1.80,13.60,3.0,778.00,1.5
2020-05-21,00:00:00,DRY,1.13,13.50,3.0,778.00,1.4
2020-05-21,00:05:00,DRY,1.10,13.40,3.0,778.00,1.4
2020-05-21,00:10:00,DRY,1.97,13.33,3.0,778.00,1.6
2020-05-21,00:15:00,DRY,2.30,13.55,3.0,778.00,2.2
2020-05-21,00:20:00,DRY,1.73,13.70,3.7,778.00,1.5
2020-05-21,00:25:00,DRY,1.65,13.50,3.5,778.00,1.4
2020-05-21,00:30:00,DRY,1.83,13.37,3.7,778.00,1.2
2020-05-21,00:35:00,DRY,1.65,13.40,3.5,778.00,1.0
2020-05-21,00:40:00,DRY,1.90,13.37,3.3,778.00,1.3
2020-05-21,00:45:00,DRY,1.85,13.55,3.0,778.00,1.5
2020-05-21,00:50:00,DRY,1.87,13.67,3.0,778.00,0.9
2020-05-21,00:55:00,DRY,1.75,13.85,3.0,778.00,1.3
2020-05-21,01:00:00,DRY,1.67,13.87,3.7,778.00,1.0
2020-05-21,01:05:00,DRY,2.05,13.60,4.0,778.00,1.4
2020-05-21,01:10:00,DRY,1.73,13.70,4.3,778.00,1.0
2020-05-21,01:15:00,DRY,1.85,13.70,5.0,778.00,0.7
2020-05-21,01:20:00,DRY,1.77,13.73,5.3,777.00,1.4
2020-05-21,01:25:00,DRY,1.60,13.70,6.0,777.00,0.6
2020-05-21,01:30:00,DRY,1.40,13.87,6.3,777.00,0.7
2020-05-21,01:35:00,DRY,1.75,13.95,7.0,777.00,1.2
2020-05-21,01:40:00,DRY,1.87,13.73,7.0,777.00,1.9
2020-05-21,01:45:00,DRY,1.80,13.60,6.0,777.00,0.8
2020-05-21,01:50:00,DRY,1.40,13.57,7.0,777.00,1.7
2020-05-21,01:55:00,DRY,1.55,13.60,6.5,777.00,1.9
2020-05-21,02:00:00,DRY,1.23,13.60,6.0,777.00,1.1
2020-05-21,02:05:00,DRY,1.55,13.60,6.0,777.00,1.6
2020-05-21,02:10:00,DRY,1.77,13.60,6.0,777.00,1.4
2020-05-21,02:15:00,DRY,1.65,13.40,6.0,777.00,0.9
2020-05-21,02:20:00,DRY,1.17,13.50,5.0,777.00,1.9
2020-05-21,02:25:00,DRY,0.70,13.35,5.0,777.00,1.2
2020-05-21,02:30:00,DRY,1.40,13.33,6.0,777.00,0.8
2020-05-21,02:35:00,DRY,1.60,13.10,6.0,777.00,1.0
2020-05-21,02:40:00,DRY,1.00,13.17,6.0,777.00,2.0
2020-05-21,02:45:00,DRY,1.15,13.20,6.5,777.00,1.4
2020-05-21,02:50:00,DRY,1.40,13.03,7.0,777.00,1.3
2020-05-21,02:55:00,DRY,1.50,13.00,7.0,777.00,0.9
2020-05-21,03:00:00,DRY,1.30,13.03,7.3,777.00,0.5
2020-05-21,03:05:00,DRY,1.40,13.10,8.0,777.00,1.0
2020-05-21,03:10:00,DRY,1.57,13.63,7.0,777.00,1.0
2020-05-21,03:15:00,DRY,1.70,13.60,7.0,777.00,0.9
2020-05-21,03:20:00,DRY,1.60,13.30,8.0,777.00,1.3
2020-05-21,03:25:00,DRY,1.75,13.25,8.0,777.00,1.2
2020-05-21,03:30:00,DRY,1.17,13.20,8.3,777.00,0.5
2020-05-21,03:35:00,DRY,1.35,13.20,9.0,777.00,1.1
2020-05-21,03:40:00,DRY,1.67,13.20,9.0,777.00,1.2
2020-05-21,03:45:00,DRY,1.80,13.15,9.0,777.00,0.9
2020-05-21,03:50:00,DRY,2.17,13.07,9.0,777.00,0.5
2020-05-21,03:55:00,DRY,1.80,12.90,9.0,777.00,1.9
2020-05-21,04:00:00,DRY,1.80,13.07,9.0,777.00,1.0
2020-05-21,04:05:00,DRY,1.80,12.85,9.0,777.00,1.3
2020-05-21,04:10:00,DRY,2.00,12.50,9.0,777.00,0.8
2020-05-21,04:15:00,DRY,2.60,12.25,9.0,777.00,0.8
2020-05-21,04:20:00,DRY,2.10,12.20,9.0,777.00,1.1
2020-05-21,04:25:00,DRY,2.20,12.45,9.0,777.00,0.5
2020-05-21,04:30:00,DRY,1.83,12.77,9.3,777.00,1.0
2020-05-21,04:35:00,DRY,2.15,12.85,9.0,777.00,0.8
2020-05-21,04:40:00,DRY,2.27,12.97,8.7,777.00,1.4
2020-05-21,04:45:00,DRY,1.65,13.25,9.0,777.00,0.8
2020-05-21,04:50:00,DRY,1.47,13.20,9.0,777.00,1.2
2020-05-21,04:55:00,DRY,1.90,13.25,9.0,777.00,0.5
2020-05-21,05:00:00,DRY,2.03,12.97,9.0,777.00,1.3
2020-05-21,05:05:00,DRY,2.30,12.95,9.0,777.00,1.1
2020-05-21,05:10:00,DRY,2.13,12.73,9.7,777.00,1.3
2020-05-21,05:15:00,DRY,2.40,12.65,10.0,777.00,1.2
2020-05-21,05:20:00,DRY,2.27,12.60,10.0,777.00,1.5
2020-05-21,05:25:00,DRY,2.50,12.60,10.0,777.00,1.9
2020-05-21,05:30:00,DRY,2.43,12.73,10.0,777.00,0.8
2020-05-21,05:35:00,DRY,1.80,12.85,10.0,777.00,0.9
2020-05-21,05:40:00,DRY,2.17,12.77,10.0,777.00,0.7
2020-05-21,05:45:00,DRY,2.40,12.80,9.5,777.00,1.1
2020-05-21,05:50:00,DRY,2.63,12.93,9.3,777.00,0.7
2020-05-21,05:55:00,DRY,2.90,13.10,9.0,777.00,1.5
2020-05-21,06:00:00,DRY,2.80,12.93,9.3,777.00,2.4
2020-05-21,06:05:00,DRY,2.90,13.05,10.0,777.00,3.4
2020-05-21,06:10:00,DRY,2.90,13.23,9.7,777.00,4.3
2020-05-21,06:15:00,DRY,2.50,13.40,9.5,777.00,6.1
2020-05-21,06:20:00,DRY,2.43,13.50,9.0,777.00,11.7
2020-05-21,06:25:00,DRY,2.40,13.40,8.0,777.00,26.9
2020-05-21,06:30:00,DRY,2.30,13.50,8.0,777.00,42.9
2020-05-21,06:35:00,DRY,2.05,13.50,5.0,777.00,62.5
2020-05-21,06:40:00,DRY,2.23,13.57,6.3,777.00,87.2
2020-05-21,06:45:00,DRY,2.25,13.85,6.5,777.00,110.6
2020-05-21,06:50:00,DRY,2.47,14.00,9.0,777.00,129.4
2020-05-21,06:55:00,DRY,2.95,14.25,9.0,777.00,149.5
2020-05-21,07:00:00,DRY,2.87,14.47,7.3,777.00,170.4
2020-05-21,07:05:00,DRY,2.95,14.50,8.0,777.00,191.2
2020-05-21,07:10:00,DRY,2.33,14.70,7.3,777.00,214.2
2020-05-21,07:15:00,DRY,2.60,14.80,8.0,777.00,230.6
2020-05-21,07:20:00,DRY,2.50,14.93,8.0,777.00,258.6
2020-05-21,07:25:00,DRY,2.30,15.00,8.0,777.00,281.1
2020-05-21,07:30:00,DRY,2.63,15.10,8.3,777.00,303.4
2020-05-21,07:35:00,DRY,2.25,15.25,9.0,777.00,326.7
2020-05-21,07:40:00,DRY,2.47,15.33,8.7,777.00,349.2
2020-05-21,07:45:00,DRY,2.50,15.35,9.0,777.00,371.5
2020-05-21,07:50:00,DRY,3.13,15.47,8.7,777.00,394.6
2020-05-21,07:55:00,DRY,2.90,15.45,8.5,777.00,417.0
2020-05-21,08:00:00,DRY,2.90,15.60,7.7,777.00,439.2
2020-05-21,08:05:00,DRY,2.70,15.75,9.0,777.00,462.9
2020-05-21,08:10:00,DRY,2.67,15.93,8.3,777.00,484.3
2020-05-21,08:15:00,DRY,2.25,15.90,8.0,777.00,506.9
2020-05-21,08:20:00,DRY,2.63,16.10,8.0,777.00,528.5
2020-05-21,08:25:00,DRY,3.65,16.20,8.0,777.00,550.0
2020-05-21,08:30:00,DRY,2.40,16.27,7.7,777.00,571.7
2020-05-21,08:35:00,DRY,3.05,16.55,8.0,777.00,592.9
2020-05-21,08:40:00,DRY,2.73,16.37,8.3,777.00,613.3
2020-05-21,08:45:00,DRY,2.35,16.30,7.0,777.00,634.6
2020-05-21,08:50:00,DRY,2.50,16.53,7.0,777.00,654.4
2020-05-21,08:55:00,DRY,2.00,16.70,8.0,777.00,676.0
2020-05-21,09:00:00,DRY,2.17,16.77,8.3,777.33,696.0
2020-05-21,09:05:00,DRY,2.40,16.95,8.0,777.50,715.3
2020-05-21,09:10:00,DRY,2.37,16.77,7.7,777.33,734.5
2020-05-21,09:15:00,DRY,2.50,16.85,7.5,778.00,754.1
2020-05-21,09:20:00,DRY,1.50,16.60,7.3,778.00,773.3
2020-05-21,09:25:00,DRY,3.00,17.15,8.5,778.00,791.3
2020-05-21,09:30:00,DRY,2.37,17.23,8.3,778.00,808.8
2020-05-21,09:35:00,DRY,2.75,16.70,7.0,778.00,827.7
2020-05-21,09:40:00,DRY,2.80,17.07,9.0,778.00,844.7
2020-05-21,09:45:00,DRY,2.65,17.15,7.0,778.00,861.3
2020-05-21,09:50:00,DRY,2.20,16.63,8.3,778.00,880.4
2020-05-21,09:55:00,DRY,2.20,16.90,9.5,778.00,895.2
2020-05-21,10:00:00,DRY,2.60,16.87,10.3,778.00,909.9
2020-05-21,10:05:00,DRY,2.80,16.70,11.5,778.00,927.0
2020-05-21,10:10:00,DRY,2.50,16.33,11.7,778.00,941.1
2020-05-21,10:15:00,DRY,2.85,16.35,12.5,778.00,956.2
2020-05-21,10:20:00,DRY,2.17,15.97,11.7,778.00,967.9
2020-05-21,10:25:00,DRY,2.10,16.25,11.5,778.00,985.9
2020-05-21,10:30:00,DRY,1.93,16.20,11.7,778.00,999.1
2020-05-21,10:35:00,DRY,2.40,16.45,10.5,778.00,1011.5
2020-05-21,10:40:00,DRY,2.90,16.47,10.0,778.00,1025.1
2020-05-21,10:45:00,DRY,3.00,16.60,12.5,778.00,1035.8
2020-05-21,10:50:00,DRY,3.10,16.37,10.3,778.00,1049.6
2020-05-21,10:55:00,DRY,3.10,16.60,12.5,778.00,1060.9
2020-05-21,11:00:00,DRY,2.60,16.70,14.0,778.00,1071.8
2020-05-21,11:05:00,DRY,2.40,16.75,14.5,778.00,1084.6
2020-05-21,11:10:00,DRY,2.43,16.30,15.0,778.00,1092.6
2020-05-21,11:15:00,DRY,2.65,16.65,15.5,778.00,1104.3
2020-05-21,11:20:00,DRY,2.27,16.37,15.3,778.00,1114.1
2020-05-21,11:25:00,DRY,3.20,16.75,17.5,778.00,1122.1
2020-05-21,11:30:00,DRY,1.97,16.53,15.3,778.00,1132.2
2020-05-21,11:35:00,DRY,3.35,16.10,16.5,778.00,1138.6
2020-05-21,11:40:00,DRY,3.00,16.60,18.0,778.00,1144.6
2020-05-21,11:45:00,DRY,2.95,16.50,17.0,778.00,1156.2
2020-05-21,11:50:00,DRY,3.50,16.03,15.3,778.00,1161.2
2020-05-21,11:55:00,DRY,1.75,16.70,18.5,778.00,1163.3
2020-05-21,12:00:00,DRY,2.50,16.60,15.7,778.00,1172.0
2020-05-21,12:05:00,DRY,2.60,16.80,16.0,778.00,1176.8
2020-05-21,12:10:00,DRY,2.20,16.43,17.0,778.00,1182.7
2020-05-21,12:15:00,DRY,2.85,17.00,16.0,778.00,1186.5
2020-05-21,12:20:00,DRY,3.07,16.90,16.0,778.00,1189.2
2020-05-21,12:25:00,DRY,2.90,16.85,16.0,778.00,1193.0
2020-05-21,12:30:00,DRY,2.87,17.20,16.7,778.00,1196.0
2020-05-21,12:35:00,DRY,2.55,17.15,15.0,778.00,1198.7
2020-05-21,12:40:00,DRY,3.50,17.23,16.0,778.00,1200.9